LogoCoinalyze
    Ad-Free Version 主页 市场 资金费率
    期货数据
    • 汇总数据 (币种)
    • 单币图表
    • 全局图表
    提醒
    TA
    Bitcoin Ethereum BNB Ripple Tron ZCash Dogecoin Monero UNUS SED LEO Chainlink Cardano Stellar Lumens Bitcoin Cash Litecoin Hedera Cronos Polkadot Ethereum Classic Algorand Quant Cosmos VeChain Dash Bitcoin SV BitTorrent Terra Decred Tezos Iota The Graph THETA Decentraland NEO Chiliz MultiversX Golem Basic Attention Token Horizen Qtum 0x DigiByte Beam RIF Token FTX Token Holo FUNToken Zilliqa Ontology Nano aelf Enjin Coin Ravencoin Mask Network Siacoin Verge Status WINk Waves IoTeX iExec RLC Power Ledger Steem Kyber Network Crystal Lisk Ark Ardor WOO Network IOST WAX Icon Storj Loopring Wanchain Bitcoin Diamond AdEx Bitcoin Gold Augur OmiseGO NEM MonaCoin BitShares Ren Komodo V Systems Nuls Mithril SOLVE Maker EOS Aion Nebulas HedgeTrade Bread Fetch.ai TomoChain Polygon Fantom Waltonchain GXChain Bytom Metaverse ETP MaidSafeCoin QASH
    排序方式:
    更多
    • API
    • K线形态
    • 捐赠
    • 联系我们
    • 网站地图
    • 隐私政策
    • 免责声明
    • Theme:
    简体中文
    • English
    • Français
    • Русский
    • Deutsch
    • Türkçe
    • Nederlands
    • Português (BR)
    • Español
    • 한국어
    • 日本語
     
    登录 / 注册
    Markets/ Pepe/ PEPE 至 EUR/ PEPEEUR Kraken
    交易
    WL
    聊天
    统计
    新闻
    ⦷
    AAA
    0.000002904 59392400.70103000 15:12:58
    0.000002905 5458000.00000000 15:12:58
    0.000002905 6885141.50000000 15:12:58
    0.000002906 59349723.39022000 15:12:58
    0.000002906 7638429.06000000 15:12:58
    0.000002906 163174673.09016001 15:12:58
    0.000002906 5458000.00000000 15:12:58
    0.000002907 5458000.00000000 15:12:58
    0.000002908 5458000.00000000 15:12:58
    0.000002910 2993127.14776000 15:12:58
    0.000002910 3930923.72365000 15:12:58
    0.000002910 1500000.00000000 15:12:58
    0.000002911 18.47536000 15:12:57
    0.000002911 3435600.00000000 15:12:57
    0.000002914 40.76870000 15:12:55
    0.000002914 8575800.00000000 15:12:54
    0.000002925 17203757.01000000 15:08:01
    0.000002925 5458000.00000000 15:08:01
    0.000002924 5458000.00000000 15:08:01
    0.000002932 18704809.00000000 14:58:35
    0.000002932 5458000.00000000 14:58:35
    0.000002935 11577775.12777000 14:56:24
    0.000002935 5458000.00000000 14:56:24
    0.000002935 84906303.23679000 14:56:15
    0.000002938 5458000.00000000 14:52:24
    0.000002939 58693658.50068000 14:51:54
    0.000002939 5458000.00000000 14:51:54
    0.000002934 161586564.61577001 14:33:23
    0.000002935 10267428.36340000 14:31:09
    0.000002935 5458000.00000000 14:31:09
    0.000002945 1881580.56000000 14:27:27
    0.000002945 3118419.44000000 14:27:27
    0.000002945 2339580.56000000 14:27:23
    0.000002942 58648064.98697000 14:25:52
    0.000002942 5458000.00000000 14:25:52
    0.000002954 129104399.70209000 14:19:34
    0.000002954 58423583.84695000 14:19:34
    0.000002954 5458000.00000000 14:19:34
    0.000002953 5458000.00000000 14:19:34
    0.000002947 2339580.56000000 14:17:01
    0.000002953 8237647.00000000 14:16:15
    0.000002953 4398789.00000000 14:16:14
    0.000002953 4322778.00000000 14:16:13
    0.000002953 3159773.00000000 14:16:12
    0.000002953 1154275.00000000 14:16:12
    0.000002953 4303725.00000000 14:16:11
    0.000002945 4773940.37370000 14:13:53
    0.000002945 5458000.00000000 14:13:53
    0.000002944 5458000.00000000 14:13:53
    0.000002950 6035003.38983000 14:09:35
    0.000002950 5458000.00000000 14:09:35
    0.000002949 5458000.00000000 14:09:35
    0.000002950 5458000.00000000 14:08:22
    0.000002951 58421530.32236000 14:08:22
    0.000002951 5458000.00000000 14:08:22
    0.000002952 58414947.69840000 14:08:22
    0.000002952 5458000.00000000 14:08:22
    0.000002936 1579998.07000000 13:58:00
    0.000002937 5458000.00000000 13:58:00
    0.000002940 2339580.56000000 13:57:18
    0.000002940 2339580.56000000 13:55:22
    0.000002943 29794120.00000000 13:52:20
    0.000002941 1407641.00000000 13:49:41
    0.000002940 5458000.00000000 13:49:41
    0.000002941 11534584.02000000 13:49:07
    0.000002941 5458000.00000000 13:49:07
    0.000002950 5458000.00000000 13:48:33
    0.000002957 58328622.34530000 13:45:56
    0.000002958 58314932.21751000 13:45:56
    0.000002959 2339580.56000000 13:45:42
    0.000002954 6817386.16716000 13:45:24
    0.000002954 6817386.16716000 13:45:24
    0.000002958 5458000.00000000 13:45:13
    0.000002955 5458000.00000000 13:45:11
    0.000002952 146994927.28705001 13:44:36
    0.000002952 146994927.28705001 13:44:36
    0.000002952 2339580.56000000 13:44:35
    0.000002951 27976297.38683000 13:44:26
    0.000002951 27976297.38683000 13:44:26
    0.000002951 93569000.00000000 13:44:26
    0.000002952 93603000.00000000 13:44:25
    0.000002946 93689000.00000000 13:44:02
    0.000002945 188006000.00000000 13:43:54
    0.000002945 93682000.00000000 13:43:54
    0.000002946 255495000.00000000 13:43:53
    0.000002942 58621277.87259000 13:43:51
    0.000002942 5458000.00000000 13:43:51
    0.000002943 5458000.00000000 13:43:51
    0.000002944 319375000.00000000 13:43:51
    0.000002943 230057267.89208001 13:43:51
    0.000002943 50882136.17829000 13:43:51
    0.000002943 146520101.64423001 13:43:51
    0.000002943 7638429.06000000 13:43:51
    0.000002943 5458000.00000000 13:43:51
    0.000002944 934557065.22539997 13:43:51
    0.000002944 5458000.00000000 13:43:51
    0.000002945 5458000.00000000 13:43:51
    0.000002946 58539772.02234000 13:43:51
    0.000002946 5458000.00000000 13:43:51
    0.000002947 58526836.21360000 13:43:51
    注销
    AAA
    帮助
    🙂 🤣 😎 🤗 😛 😉 😜 🤑 🤔 😑 😴 😕 🙃 😲 😇 🙁 😢 😬 😟 😠 🕺 🏃 💪 ✌ 👌 👍 👎 👏 👋 🤝 🍺 🍻 🐋 🐟 🦈 🗽 🚄 ✈ 🛑 🚀 🏦 🌚 ⭐ 🌞 ⚡ 🏆 💰 💲 🔨 ❓ ❗ 💯 🔶 🏁
    ☺
    登录 或 注册 并聊天
    24 小时
    变动
    -3.52%
    成交量
    41,321,916,242
    最高
    0.000003046
    最低
    0.000002904
    7 天
    变动
    -11.08%
    成交量
    505,280,422,211
    最高
    0.000003444
    最低
    0.000002902
    30 天
    变动
    +15.61%
    成交量
    2,257,326,783,797
    最高
    0.000003891
    最低
    0.000002190
    Pepe price rallies 25% as whale demand and futures interest surge
    Key takeaways Pepe has gained 25% this week, including a combined 22% advance over the previous two days. Seven whale transactions worth more than $1 million each occurred Thursday, the highest...
    coinjournal.net
    Aug 21, 2026 08:41
    PEPE Supply on Exchanges Just Took a Massive Hit – What’s Next?
    A drop in PEPE exchange balances has added to bullish expectations despite muted trader interest.
    cryptopotato.com
    Aug 6, 2026 20:02
    PEPE Exchange Outflows Hit Nearly 2-Year High as Whales Accumulate
    Pepe (PEPE) recorded its largest single-day exchange outflow since November 2024, with 4.54 trillion tokens leaving trading platforms, signaling that holders are moving supply away from immediate...
    beincrypto.com
    Aug 6, 2026 04:57
    Meme Coin Based on White House Shooter Conspiracy Rallies 320%
    $HENRY surged 300% after a 2023 Pepe tweet appeared to name the White House shooter, fueling a viral time-travel meme. The post Meme Coin Based on White House Shooter Conspiracy Rallies 320%...
    beincrypto.com
    Apr 27, 2026 16:11
    PEPE surges 4% as market sentiment improves, eyes Key resistance breakout
    Key takeaways Pepe extends gains on Wednesday, stretching its rally from the 50-day EMA. Derivatives data show heightened retail activity as risk-on sentiment returns to the market. Pepe (PEPE) is...
    coinjournal.net
    Apr 22, 2026 11:44
    Why The PEPE Price Could Stage A 55X Rally To Reach New $0.0001 ATH
    The PEPE price has now started to edge back into bullish conversations after the recent inflows into the crypto market. The last time PEPE’s weekly chart printed the kind of structure now...
    newsbtc.com
    Apr 21, 2026 15:30
    Pepe (PEPE) surges 9%, drawing interest from whales
    Key takeaways PEPE is up 9% in the last 24 hours, making it one of the best performers among the top 50 cryptocurrencies by market cap. The rally comes amid renewed interest from whales and retail...
    coinjournal.net
    Apr 16, 2026 07:40
    Murad Says SPX6900 (SPX) Is Primed for a Rally — Is He Right This Time?
    Crypto influencer Murad Mahmudov claims SPX6900 (SPX) is stabilizing at the same market cap level where Dogecoin (DOGE) and Pepe (PEPE) consolidated before their explosive rallies. The...
    beincrypto.com
    Apr 5, 2026 21:36
    The Shiba Inu Of This Cycle: Analyst Shares Why It Is Better To Buy PEPE Now
    In the bull market cycle of 2021-2022, the Shiba Inu meme coin made waves in a way that changed the face of meme coins forever. This came after Dogecoin’s initial 36,000% rally, and Shiba Inu...
    newsbtc.com
    Apr 4, 2026 07:30
    PEPE Explodes by 18% Amid Altcoin Rally, BTC Tapped $74K: Market Watch
    The frog-themed meme coin is today's biggest gainer, followed by TAO, DOT, and BONK.
    cryptopotato.com
    Mar 16, 2026 10:56
    Should PEPE traders brace for volatility as short squeeze potential builds?
    The memecoin market has seen its collective market capitalization drop by 48% over the past year, and 6.9% over the past month, according to CoinMarketCap. According to Glassnode, the memecoin...
    ambcrypto.com
    Mar 7, 2026 18:00
    只需在聊天中输入命令即可。将 nick1 替换为实际的昵称。
    • /ignore nick1 忽略聊天用户
    • /unignore nick1 取消忽略聊天用户
    • /ignorelist 显示已忽略的聊天用户